Caro, MI

12:04 AM EDT on April 21, 2018 (GMT -0400)
Caro

Weather History for KCFS - October, 2013

Change the Weather History Date:

Wednesday, October 23, 2013

  Actual Average (KMBS) Record (KMBS)
Temperature  
Mean Temperature 38 °F -  
Max Temperature 45 °F 54 °F 69 °F (1998)
Min Temperature 31 °F 36 °F 28 °F (1997)
Degree Days  
Heating Degree Days 27    
Moisture  
Dew Point 30 °F    
Average Humidity 72    
Maximum Humidity 93    
Minimum Humidity 42    
Precipitation  
Precipitation 0.00 in - - ()
Sea Level Pressure  
Sea Level Pressure 29.85 in    
Wind  
Wind Speed 5 mph (WNW)    
Max Wind Speed 12 mph    
Max Gust Speed 18 mph    
Visibility 10 miles    
Events Rain    
Averages and records for this station are not official NWS values.
T = Trace of Precipitation, MM = Missing Value Source: NWS Daily Summary

Daily Weather History Graph

Daily Weather History Graph

Search for Another Location

Airport or City:

Astronomy

Oct. 23, 2013 Rise Set
Actual Time 7:57 AM EDT 6:37 PM EDT
Civil Twilight 7:28 AM EDT 7:06 PM EDT
Nautical Twilight 6:55 AM EDT 7:40 PM EDT
Astronomical Twilight 6:22 AM EDT 8:13 PM EDT
Moon 10:03 PM EDT (10/23) 12:18 PM EDT (10/23)
Length of Visible Light 11h 37m
Length of Day
10h 39m
Waning Gibbous, 79% of the Moon is Illuminated
Oct 23
Waning Gibbous
Oct 26
Last Quarter
Nov 3
New
Nov 10
First Quarter
Nov 17
Full

Hourly Weather History & Observations

Time (EDT) Temp. Windchill Dew Point Humidity Pressure Visibility Wind Dir Wind Speed Gust Speed Precip Events Conditions
12:15 AM 40.5 °F 38.4 °F 35.2 °F 82% 29.85 in 10.0 mi West 3.5 mph - N/A   Overcast
12:34 AM 40.3 °F 37.1 °F 35.1 °F 82% 29.84 in 10.0 mi West 4.6 mph - N/A   Overcast
12:55 AM 39.4 °F 37.2 °F 34.9 °F 84% 29.84 in 10.0 mi West 3.5 mph - N/A   Overcast
1:14 AM 39.7 °F 36.5 °F 35.6 °F 85% 29.84 in 10.0 mi West 4.6 mph - N/A   Light Drizzle
1:34 AM 39.6 °F 36.3 °F 35.6 °F 86% 29.84 in 10.0 mi WNW 4.6 mph - N/A   Overcast
1:55 AM 39.2 °F 35.9 °F 35.1 °F 85% 29.84 in 10.0 mi West 4.6 mph - N/A   Overcast
2:14 AM 38.5 °F 35.0 °F 34.7 °F 86% 29.84 in 10.0 mi West 4.6 mph - N/A   Light Drizzle
2:35 AM 38.7 °F 36.3 °F 35.6 °F 89% 29.84 in 7.0 mi North 3.5 mph - N/A Rain Rain
2:54 AM 38.5 °F 35.0 °F 36.0 °F 91% 29.84 in 5.0 mi NNW 4.6 mph - N/A Rain Rain
3:15 AM 37.6 °F - 35.1 °F 91% 29.83 in 10.0 mi Calm Calm - N/A   Overcast
3:35 AM 36.7 °F - 34.2 °F 91% 29.82 in 10.0 mi Calm Calm - N/A   Mostly Cloudy
3:54 AM 35.8 °F - 33.8 °F 92% 29.82 in 10.0 mi Calm Calm - N/A   Mostly Cloudy
4:14 AM 35.6 °F - 33.8 °F 93% 29.82 in 10.0 mi Calm Calm - N/A   Mostly Cloudy
4:35 AM 34.9 °F - 33.1 °F 93% 29.82 in 10.0 mi Calm Calm - N/A   Mostly Cloudy
4:54 AM 34.3 °F 31.4 °F 32.5 °F 93% 29.82 in 10.0 mi NW 3.5 mph - N/A   Mostly Cloudy
5:15 AM 34.3 °F 31.4 °F 32.5 °F 93% 29.82 in 10.0 mi NNW 3.5 mph - N/A   Mostly Cloudy
5:35 AM 36.5 °F 33.9 °F 34.0 °F 91% 29.82 in 10.0 mi NNW 3.5 mph - N/A   Overcast
5:54 AM 36.7 °F 34.1 °F 33.8 °F 89% 29.82 in 10.0 mi NNW 3.5 mph - N/A   Overcast
6:15 AM 36.9 °F 34.3 °F 33.8 °F 89% 29.82 in 10.0 mi NW 3.5 mph - N/A   Overcast
6:35 AM 36.9 °F 34.3 °F 33.6 °F 88% 29.82 in 10.0 mi NW 3.5 mph - N/A   Overcast
6:54 AM 37.4 °F - 33.8 °F 87% 29.82 in 10.0 mi Calm Calm - N/A   Overcast
7:15 AM 37.4 °F - 33.4 °F 86% 29.82 in 10.0 mi Calm Calm - N/A   Overcast
7:35 AM 37.2 °F 34.7 °F 33.3 °F 86% 29.82 in 10.0 mi NNW 3.5 mph - N/A   Overcast
7:54 AM 36.9 °F 33.1 °F 32.9 °F 86% 29.83 in 10.0 mi NNW 4.6 mph - N/A   Overcast
8:15 AM 36.1 °F 32.3 °F 32.4 °F 86% 29.83 in 10.0 mi NNW 4.6 mph - N/A   Mostly Cloudy
8:35 AM 36.5 °F 31.0 °F 32.2 °F 84% 29.83 in 10.0 mi NNW 6.9 mph - N/A   Scattered Clouds
8:55 AM 37.2 °F 31.9 °F 32.0 °F 81% 29.84 in 10.0 mi NNW 6.9 mph - N/A   Clear
9:15 AM 38.3 °F 33.2 °F 32.5 °F 80% 29.84 in 10.0 mi NNW 6.9 mph - N/A   Clear
9:34 AM 39.2 °F 35.0 °F 32.5 °F 77% 29.85 in 10.0 mi NNW 5.8 mph - N/A   Clear
9:55 AM 40.5 °F 35.8 °F 32.4 °F 73% 29.84 in 10.0 mi NW 6.9 mph - N/A   Clear
10:14 AM 41.4 °F 34.7 °F 31.8 °F 69% 29.85 in 10.0 mi NW 11.5 mph - N/A   Scattered Clouds
10:35 AM 40.8 °F 34.5 °F 32.5 °F 72% 29.85 in 10.0 mi WNW 10.4 mph - N/A   Overcast
10:55 AM 41.0 °F 35.2 °F 31.8 °F 70% 29.85 in 10.0 mi WNW 9.2 mph 17.3 mph N/A   Mostly Cloudy
11:14 AM 41.7 °F 37.3 °F 30.2 °F 64% 29.85 in 10.0 mi WNW 6.9 mph - N/A   Scattered Clouds
11:35 AM 41.9 °F 36.3 °F 30.4 °F 64% 29.85 in 10.0 mi WNW 9.2 mph - N/A   Scattered Clouds
11:55 AM 42.6 °F 37.8 °F 29.5 °F 60% 29.85 in 10.0 mi NW 8.1 mph - N/A   Scattered Clouds
12:14 PM 43.5 °F 38.9 °F 28.2 °F 55% 29.85 in 10.0 mi NNW 8.1 mph 16.1 mph N/A   Scattered Clouds
12:35 PM 44.6 °F 39.2 °F 27.3 °F 51% 29.85 in 10.0 mi WNW 10.4 mph - N/A   Scattered Clouds
12:55 PM 44.2 °F 39.2 °F 27.5 °F 52% 29.85 in 10.0 mi WNW 9.2 mph 16.1 mph N/A   Mostly Cloudy
1:14 PM 44.1 °F 39.0 °F 27.5 °F 52% 29.85 in 10.0 mi West 9.2 mph - N/A   Scattered Clouds
1:35 PM 43.3 °F 37.7 °F 26.8 °F 52% 29.84 in 10.0 mi West 10.4 mph - N/A   Scattered Clouds
1:55 PM 43.0 °F 37.7 °F 27.1 °F 54% 29.84 in 10.0 mi NNW 9.2 mph 16.1 mph N/A   Mostly Cloudy
2:14 PM 43.0 °F 37.7 °F 27.1 °F 54% 29.84 in 10.0 mi NW 9.2 mph - N/A   Overcast
2:35 PM 43.2 °F 38.4 °F 26.8 °F 52% 29.84 in 10.0 mi WNW 8.1 mph - N/A   Overcast
2:54 PM 43.7 °F 39.1 °F 26.6 °F 51% 29.83 in 10.0 mi WNW 8.1 mph - N/A   Overcast
3:15 PM 45.0 °F 39.7 °F 23.0 °F 42% 29.83 in 10.0 mi West 10.4 mph - N/A   Overcast
3:35 PM 45.5 °F 39.9 °F 23.4 °F 42% 29.83 in 10.0 mi West 11.5 mph 17.3 mph N/A   Overcast
3:54 PM 43.2 °F 37.9 °F 24.8 °F 48% 29.83 in 10.0 mi NW 9.2 mph - N/A   Overcast
4:15 PM 44.8 °F 39.9 °F 23.2 °F 43% 29.83 in 10.0 mi West 9.2 mph - N/A   Mostly Cloudy
4:34 PM 44.8 °F 39.4 °F 23.9 °F 44% 29.83 in 10.0 mi WNW 10.4 mph 17.3 mph N/A   Mostly Cloudy
4:55 PM 43.2 °F 39.0 °F 23.7 °F 46% 29.84 in 10.0 mi WNW 6.9 mph - N/A   Mostly Cloudy
5:15 PM 43.9 °F 39.9 °F 23.2 °F 44% 29.84 in 10.0 mi WNW 6.9 mph - N/A   Overcast
5:34 PM 43.7 °F 38.1 °F 22.5 °F 43% 29.84 in 10.0 mi West 10.4 mph - N/A   Overcast
5:55 PM 43.0 °F 38.2 °F 21.9 °F 43% 29.84 in 10.0 mi West 8.1 mph 18.4 mph N/A   Mostly Cloudy
6:14 PM 42.1 °F 35.7 °F 27.3 °F 56% 29.85 in 10.0 mi WNW 11.5 mph 18.4 mph N/A   Mostly Cloudy
6:35 PM 41.5 °F 35.9 °F 27.7 °F 58% 29.86 in 10.0 mi West 9.2 mph - N/A   Mostly Cloudy
6:55 PM 39.9 °F 35.1 °F 25.7 °F 57% 29.87 in 10.0 mi West 6.9 mph - N/A   Scattered Clouds
7:14 PM 38.8 °F 34.6 °F 26.6 °F 61% 29.87 in 10.0 mi West 5.8 mph - N/A   Mostly Cloudy
7:35 PM 38.8 °F 33.8 °F 27.1 °F 63% 29.88 in 10.0 mi West 6.9 mph - N/A   Overcast
7:54 PM 37.6 °F 34.0 °F 27.3 °F 66% 29.88 in 10.0 mi West 4.6 mph - N/A   Mostly Cloudy
8:15 PM 36.1 °F 32.3 °F 27.3 °F 70% 29.88 in 10.0 mi West 4.6 mph - N/A   Clear
8:35 PM 34.7 °F 31.8 °F 26.8 °F 73% 29.88 in 10.0 mi West 3.5 mph - N/A   Clear
8:54 PM 34.0 °F 29.8 °F 26.8 °F 75% 29.88 in 10.0 mi West 4.6 mph - N/A   Clear
9:15 PM 33.6 °F 29.4 °F 27.3 °F 78% 29.88 in 10.0 mi West 4.6 mph - N/A   Clear
9:35 PM 33.1 °F 28.7 °F 27.9 °F 81% 29.88 in 10.0 mi West 4.6 mph - N/A   Clear
9:54 PM 33.8 °F 29.6 °F 28.4 °F 81% 29.88 in 10.0 mi WSW 4.6 mph - N/A   Clear
10:15 PM 32.0 °F 28.7 °F 27.3 °F 83% 29.88 in 10.0 mi SW 3.5 mph - N/A   Clear
10:35 PM 31.8 °F 26.2 °F 27.9 °F 85% 29.88 in 10.0 mi WSW 5.8 mph - N/A   Clear
10:54 PM 33.4 °F 28.1 °F 28.9 °F 84% 29.89 in 10.0 mi WSW 5.8 mph - N/A   Clear
11:15 PM 33.6 °F 28.4 °F 28.4 °F 81% 29.89 in 10.0 mi WSW 5.8 mph - N/A   Clear
11:35 PM 33.6 °F 26.8 °F 28.4 °F 81% 29.89 in 10.0 mi West 8.1 mph - N/A   Scattered Clouds
11:54 PM 33.3 °F 26.4 °F 28.8 °F 84% 29.89 in 10.0 mi West 8.1 mph - N/A   Scattered Clouds